contact:dominique.lefevre@mio.osupytheas.fr, maurice.libes@osupytheas.fr, didier.mallarino@osupytheas.fr
Project:EMSO http://www.emso-fr.org/EMSO-France
Depth: 2436.0 m
Title:EMSO Ligure Ouest : Data MII capteur CSTAR
DateTime,Latitude,Longitude,Instrument_Serial,Reference_Counts,Signal_Counts,Corrected_Signal_raw_counts,Calculated_Beam_c_inverse_meters,Internal_thermistor_counts
DateTime,Latitude,Longitude,Instrument_Serial,Reference_Counts,Signal_Counts,Corrected_Signal_raw_counts,Calculated_Beam_c_inverse_meters,Internal_thermistor_counts
2023-05-23T00:02:48,42.805,6.029,CST-1368DR,4290,4659,11529,01.214,552
2023-05-23T00:05:49,42.805,6.029,CST-1368DR,4290,4660,11531,01.213,552
2023-05-23T00:08:51,42.805,6.029,CST-1368DR,4290,4659,11529,01.214,552
2023-05-23T00:11:52,42.805,6.029,CST-1368DR,4290,4658,11526,01.215,552
2023-05-23T00:14:54,42.805,6.029,CST-1368DR,4290,4656,11522,01.216,552
2023-05-23T00:17:55,42.805,6.029,CST-1368DR,4290,4657,11523,01.216,552
2023-05-23T00:20:57,42.805,6.029,CST-1368DR,4290,4659,11528,01.214,552
2023-05-23T00:23:59,42.805,6.029,CST-1368DR,4290,4657,11524,01.215,552
2023-05-23T00:27:00,42.805,6.029,CST-1368DR,4290,4659,11528,01.214,552
2023-05-23T00:30:02,42.805,6.029,CST-1368DR,4290,4661,11534,01.212,552
2023-05-23T00:33:03,42.805,6.029,CST-1368DR,4290,4661,11534,01.212,552
2023-05-23T00:36:05,42.805,6.029,CST-1368DR,4290,4662,11536,01.211,552
2023-05-23T00:39:07,42.805,6.029,CST-1368DR,4290,4661,11534,01.212,552
2023-05-23T00:42:08,42.805,6.029,CST-1368DR,4290,4659,11529,01.214,552
2023-05-23T00:45:10,42.805,6.029,CST-1368DR,4290,4660,11530,01.213,552
2023-05-23T00:48:11,42.805,6.029,CST-1368DR,4290,4658,11527,01.214,552
2023-05-23T00:51:13,42.805,6.029,CST-1368DR,4290,4662,11536,01.211,552
2023-05-23T00:54:14,42.805,6.029,CST-1368DR,4290,4660,11530,01.213,552
2023-05-23T00:57:16,42.805,6.029,CST-1368DR,4290,4660,11531,01.213,552
2023-05-23T01:00:18,42.805,6.029,CST-1368DR,4290,4655,11520,01.217,552
2023-05-23T01:03:19,42.805,6.029,CST-1368DR,4290,4661,11533,01.212,552
2023-05-23T01:06:21,42.805,6.029,CST-1368DR,4290,4658,11527,01.214,552
2023-05-23T01:09:22,42.805,6.029,CST-1368DR,4290,4661,11534,01.212,552
2023-05-23T01:12:24,42.805,6.029,CST-1368DR,4290,4660,11531,01.213,552
2023-05-23T01:15:25,42.805,6.029,CST-1368DR,4290,4663,11539,01.210,552
2023-05-23T01:18:27,42.805,6.029,CST-1368DR,4290,4660,11531,01.213,552
2023-05-23T01:21:29,42.805,6.029,CST-1368DR,4290,4662,11535,01.212,552
2023-05-23T01:24:30,42.805,6.029,CST-1368DR,4290,4661,11534,01.212,552
2023-05-23T01:27:32,42.805,6.029,CST-1368DR,4290,4661,11534,01.212,552
2023-05-23T01:30:33,42.805,6.029,CST-1368DR,4290,4662,11535,01.212,552
2023-05-23T01:33:35,42.805,6.029,CST-1368DR,4290,4659,11529,01.214,552
2023-05-23T01:36:37,42.805,6.029,CST-1368DR,4290,4658,11526,01.215,552
2023-05-23T01:39:38,42.805,6.029,CST-1368DR,4290,4659,11528,01.214,552
2023-05-23T01:42:40,42.805,6.029,CST-1368DR,4290,4661,11534,01.212,552
2023-05-23T01:45:41,42.805,6.029,CST-1368DR,4290,4661,11533,01.212,552
2023-05-23T01:48:43,42.805,6.029,CST-1368DR,4290,4661,11534,01.212,552
2023-05-23T01:51:44,42.805,6.029,CST-1368DR,4290,4660,11531,01.213,552
2023-05-23T01:54:46,42.805,6.029,CST-1368DR,4290,4662,11537,01.211,552
2023-05-23T01:57:48,42.805,6.029,CST-1368DR,4290,4660,11531,01.213,552
2023-05-23T02:00:49,42.805,6.029,CST-1368DR,4290,4658,11525,01.215,551
2023-05-23T02:03:51,42.805,6.029,CST-1368DR,4290,4656,11520,01.217,552
2023-05-23T02:06:52,42.805,6.029,CST-1368DR,4290,4658,11525,01.215,552
2023-05-23T02:09:54,42.805,6.029,CST-1368DR,4290,4655,11520,01.217,552
2023-05-23T02:12:55,42.805,6.029,CST-1368DR,4290,4656,11521,01.216,552
2023-05-23T02:15:57,42.805,6.029,CST-1368DR,4290,4653,11514,01.219,552
2023-05-23T02:18:59,42.805,6.029,CST-1368DR,4290,4652,11510,01.220,551
2023-05-23T02:22:00,42.805,6.029,CST-1368DR,4290,4656,11521,01.216,552
2023-05-23T02:25:02,42.805,6.029,CST-1368DR,4290,4657,11525,01.215,551
2023-05-23T02:28:03,42.805,6.029,CST-1368DR,4290,4658,11526,01.215,552
2023-05-23T02:31:05,42.805,6.029,CST-1368DR,4290,4657,11524,01.215,552
2023-05-23T02:34:06,42.805,6.029,CST-1368DR,4290,4656,11522,01.216,552
2023-05-23T02:37:08,42.805,6.029,CST-1368DR,4290,4656,11521,01.216,552
2023-05-23T02:40:10,42.805,6.029,CST-1368DR,4290,4655,11518,01.218,552
2023-05-23T02:43:11,42.805,6.029,CST-1368DR,4290,4655,11519,01.217,552
2023-05-23T02:46:13,42.805,6.029,CST-1368DR,4290,4659,11528,01.214,552
2023-05-23T02:49:14,42.805,6.029,CST-1368DR,4290,4658,11525,01.215,552
2023-05-23T02:52:16,42.805,6.029,CST-1368DR,4290,4660,11531,01.213,552
2023-05-23T02:55:18,42.805,6.029,CST-1368DR,4290,4662,11537,01.211,552
2023-05-23T02:58:19,42.805,6.029,CST-1368DR,4290,4657,11525,01.215,551
2023-05-23T03:01:21,42.805,6.029,CST-1368DR,4290,4656,11521,01.216,552
2023-05-23T03:04:22,42.805,6.029,CST-1368DR,4290,4655,11519,01.217,552
2023-05-23T03:07:24,42.805,6.029,CST-1368DR,4290,4657,11523,01.216,552
2023-05-23T03:10:25,42.805,6.029,CST-1368DR,4290,4656,11522,01.216,552
2023-05-23T03:13:27,42.805,6.029,CST-1368DR,4290,4657,11524,01.215,552
2023-05-23T03:16:29,42.805,6.029,CST-1368DR,4290,4656,11522,01.216,552
2023-05-23T03:19:30,42.805,6.029,CST-1368DR,4290,4655,11518,01.218,552
2023-05-23T03:22:32,42.805,6.029,CST-1368DR,4289,4657,11526,01.215,552
2023-05-23T03:25:33,42.805,6.029,CST-1368DR,4290,4657,11523,01.216,552
2023-05-23T03:28:35,42.805,6.029,CST-1368DR,4290,4658,11525,01.215,552
2023-05-23T03:31:36,42.805,6.029,CST-1368DR,4290,4661,11533,01.212,552
2023-05-23T03:34:38,42.805,6.029,CST-1368DR,4290,4660,11531,01.213,552
2023-05-23T03:37:40,42.805,6.029,CST-1368DR,4290,4660,11531,01.213,552
2023-05-23T03:40:41,42.805,6.029,CST-1368DR,4290,4659,11529,01.214,552
2023-05-23T03:43:43,42.805,6.029,CST-1368DR,4290,4659,11528,01.214,552
2023-05-23T03:46:44,42.805,6.029,CST-1368DR,4290,4658,11526,01.215,552
2023-05-23T03:49:46,42.805,6.029,CST-1368DR,4289,4658,11530,01.213,552
2023-05-23T03:52:48,42.805,6.029,CST-1368DR,4289,4657,11526,01.215,552
2023-05-23T03:55:49,42.805,6.029,CST-1368DR,4290,4659,11528,01.214,552
2023-05-23T03:58:51,42.805,6.029,CST-1368DR,4290,4654,11516,01.218,552
2023-05-23T04:01:52,42.805,6.029,CST-1368DR,4290,4655,11518,01.218,552
2023-05-23T04:04:54,42.805,6.029,CST-1368DR,4290,4657,11524,01.215,552
2023-05-23T04:07:55,42.805,6.029,CST-1368DR,4290,4657,11523,01.216,552
2023-05-23T04:10:57,42.805,6.029,CST-1368DR,4289,4657,11527,01.214,552
2023-05-23T04:13:59,42.805,6.029,CST-1368DR,4290,4653,11513,01.219,552
2023-05-23T04:17:00,42.805,6.029,CST-1368DR,4289,4656,11525,01.215,552
2023-05-23T04:20:02,42.805,6.029,CST-1368DR,4289,4655,11522,01.216,552
2023-05-23T04:23:03,42.805,6.029,CST-1368DR,4290,4655,11518,01.218,552
2023-05-23T04:26:05,42.805,6.029,CST-1368DR,4289,4653,11517,01.218,552
2023-05-23T04:29:06,42.805,6.029,CST-1368DR,4289,4655,11522,01.216,552
2023-05-23T04:32:08,42.805,6.029,CST-1368DR,4290,4655,11519,01.217,552
2023-05-23T04:35:10,42.805,6.029,CST-1368DR,4289,4655,11522,01.216,552
2023-05-23T04:38:11,42.805,6.029,CST-1368DR,4289,4655,11522,01.216,552
2023-05-23T04:41:13,42.805,6.029,CST-1368DR,4290,4656,11521,01.216,552
2023-05-23T04:44:14,42.805,6.029,CST-1368DR,4289,4656,11524,01.215,552
2023-05-23T04:47:16,42.805,6.029,CST-1368DR,4289,4653,11517,01.218,552
2023-05-23T04:50:18,42.805,6.029,CST-1368DR,4289,4651,11512,01.220,552
2023-05-23T04:53:19,42.805,6.029,CST-1368DR,4289,4653,11515,01.219,552
2023-05-23T04:56:21,42.805,6.029,CST-1368DR,4289,4655,11521,01.216,552
2023-05-23T04:59:22,42.805,6.029,CST-1368DR,4289,4653,11517,01.218,552
2023-05-23T05:02:24,42.805,6.029,CST-1368DR,4289,4654,11518,01.218,552
2023-05-23T05:05:25,42.805,6.029,CST-1368DR,4289,4654,11519,01.217,552
2023-05-23T05:08:27,42.805,6.029,CST-1368DR,4289,4655,11522,01.216,552
2023-05-23T05:11:29,42.805,6.029,CST-1368DR,4289,4654,11520,01.217,552
2023-05-23T05:14:30,42.805,6.029,CST-1368DR,4289,4652,11513,01.219,552
2023-05-23T05:17:32,42.805,6.029,CST-1368DR,4289,4655,11520,01.217,552
2023-05-23T05:20:33,42.805,6.029,CST-1368DR,4289,4653,11517,01.218,552
2023-05-23T05:23:35,42.805,6.029,CST-1368DR,4289,4656,11523,01.216,552
2023-05-23T05:26:37,42.805,6.029,CST-1368DR,4289,4650,11510,01.220,552
2023-05-23T05:29:38,42.805,6.029,CST-1368DR,4289,4654,11520,01.217,552
2023-05-23T05:32:40,42.805,6.029,CST-1368DR,4289,4653,11516,01.218,552
2023-05-23T05:35:41,42.805,6.029,CST-1368DR,4289,4653,11517,01.218,552
2023-05-23T05:38:43,42.805,6.029,CST-1368DR,4289,4655,11522,01.216,551
2023-05-23T05:41:44,42.805,6.029,CST-1368DR,4289,4656,11523,01.216,552
2023-05-23T05:44:46,42.805,6.029,CST-1368DR,4289,4655,11520,01.217,552
2023-05-23T05:47:48,42.805,6.029,CST-1368DR,4289,4655,11522,01.216,552
2023-05-23T05:50:49,42.805,6.029,CST-1368DR,4289,4657,11525,01.215,552
2023-05-23T05:53:51,42.805,6.029,CST-1368DR,4289,4649,11507,01.221,552
2023-05-23T05:56:52,42.805,6.029,CST-1368DR,4289,4655,11522,01.216,552
2023-05-23T05:59:54,42.805,6.029,CST-1368DR,4289,4656,11523,01.216,552
2023-05-23T06:02:55,42.805,6.029,CST-1368DR,4289,4656,11523,01.216,552
2023-05-23T06:05:57,42.805,6.029,CST-1368DR,4289,4656,11524,01.215,552
2023-05-23T06:08:59,42.805,6.029,CST-1368DR,4289,4656,11525,01.215,552
2023-05-23T06:12:00,42.805,6.029,CST-1368DR,4289,4657,11527,01.214,552
2023-05-23T06:15:02,42.805,6.029,CST-1368DR,4289,4657,11525,01.215,552
2023-05-23T06:18:03,42.805,6.029,CST-1368DR,4289,4656,11525,01.215,552
2023-05-23T06:21:05,42.805,6.029,CST-1368DR,4289,4656,11525,01.215,552
2023-05-23T06:24:07,42.805,6.029,CST-1368DR,4289,4655,11520,01.217,552
2023-05-23T06:27:08,42.805,6.029,CST-1368DR,4289,4657,11526,01.215,552
2023-05-23T06:30:13,42.805,6.029,CST-1368DR,4289,4647,11501,01.223,552
2023-05-23T06:33:15,42.805,6.029,CST-1368DR,4289,4657,11526,01.215,552
2023-05-23T06:36:17,42.805,6.029,CST-1368DR,4289,4657,11527,01.214,552
2023-05-23T06:39:18,42.805,6.029,CST-1368DR,4289,4658,11529,01.214,552
2023-05-23T06:42:20,42.805,6.029,CST-1368DR,4289,4657,11526,01.215,552
2023-05-23T06:45:21,42.805,6.029,CST-1368DR,4289,4655,11520,01.217,552
2023-05-23T06:48:23,42.805,6.029,CST-1368DR,4289,4658,11528,01.214,552
2023-05-23T06:51:25,42.805,6.029,CST-1368DR,4289,4657,11527,01.214,552
2023-05-23T06:54:26,42.805,6.029,CST-1368DR,4289,4656,11523,01.216,552
2023-05-23T06:57:28,42.805,6.029,CST-1368DR,4289,4659,11530,01.213,552
2023-05-23T07:00:29,42.805,6.029,CST-1368DR,4289,4655,11522,01.216,552
2023-05-23T07:03:31,42.805,6.029,CST-1368DR,4289,4657,11527,01.214,552
2023-05-23T07:06:32,42.805,6.029,CST-1368DR,4289,4658,11529,01.214,552
2023-05-23T07:09:34,42.805,6.029,CST-1368DR,4289,4656,11523,01.216,552
2023-05-23T07:12:36,42.805,6.029,CST-1368DR,4289,4655,11521,01.216,552
2023-05-23T07:15:37,42.805,6.029,CST-1368DR,4289,4657,11525,01.215,552
2023-05-23T07:18:39,42.805,6.029,CST-1368DR,4289,4652,11515,01.219,552
2023-05-23T07:21:40,42.805,6.029,CST-1368DR,4289,4656,11523,01.216,552
2023-05-23T07:24:42,42.805,6.029,CST-1368DR,4289,4657,11525,01.215,552
2023-05-23T07:27:43,42.805,6.029,CST-1368DR,4289,4654,11519,01.217,552
2023-05-23T07:30:45,42.805,6.029,CST-1368DR,4289,4656,11525,01.215,552
2023-05-23T07:33:47,42.805,6.029,CST-1368DR,4289,4654,11520,01.217,552
2023-05-23T07:36:48,42.805,6.029,CST-1368DR,4289,4654,11518,01.218,552
2023-05-23T07:39:50,42.805,6.029,CST-1368DR,4289,4655,11521,01.216,552
2023-05-23T07:42:51,42.805,6.029,CST-1368DR,4289,4645,11496,01.225,552
2023-05-23T07:45:53,42.805,6.029,CST-1368DR,4289,4653,11516,01.218,552
2023-05-23T07:48:54,42.805,6.029,CST-1368DR,4289,4653,11517,01.218,552
2023-05-23T07:51:56,42.805,6.029,CST-1368DR,4289,4653,11516,01.218,552
2023-05-23T07:54:58,42.805,6.029,CST-1368DR,4289,4654,11520,01.217,552
2023-05-23T07:57:59,42.805,6.029,CST-1368DR,4289,4653,11516,01.218,552
2023-05-23T08:01:01,42.805,6.029,CST-1368DR,4289,4655,11522,01.216,552
2023-05-23T08:04:02,42.805,6.029,CST-1368DR,4289,4654,11519,01.217,552
2023-05-23T08:07:04,42.805,6.029,CST-1368DR,4289,4653,11517,01.218,552
2023-05-23T08:10:06,42.805,6.029,CST-1368DR,4289,4651,11510,01.220,552
2023-05-23T08:13:07,42.805,6.029,CST-1368DR,4289,4655,11521,01.216,552
2023-05-23T08:16:09,42.805,6.029,CST-1368DR,4289,4651,11511,01.220,552
2023-05-23T08:19:10,42.805,6.029,CST-1368DR,4289,4652,11513,01.219,552
2023-05-23T08:22:12,42.805,6.029,CST-1368DR,4289,4652,11514,01.219,552
2023-05-23T08:25:13,42.805,6.029,CST-1368DR,4289,4654,11518,01.218,552
2023-05-23T08:28:15,42.805,6.029,CST-1368DR,4289,4654,11518,01.218,552
2023-05-23T08:31:17,42.805,6.029,CST-1368DR,4289,4656,11524,01.215,552
2023-05-23T08:34:18,42.805,6.029,CST-1368DR,4289,4652,11513,01.219,552
2023-05-23T08:37:20,42.805,6.029,CST-1368DR,4289,4653,11515,01.219,552
2023-05-23T08:40:21,42.805,6.029,CST-1368DR,4289,4653,11517,01.218,552
2023-05-23T08:43:23,42.805,6.029,CST-1368DR,4289,4653,11515,01.219,552
2023-05-23T08:46:24,42.805,6.029,CST-1368DR,4289,4653,11515,01.219,552
2023-05-23T08:49:26,42.805,6.029,CST-1368DR,4289,4654,11519,01.217,552
2023-05-23T08:52:28,42.805,6.029,CST-1368DR,4289,4655,11521,01.216,552
2023-05-23T08:55:29,42.805,6.029,CST-1368DR,4289,4655,11522,01.216,552
2023-05-23T08:58:31,42.805,6.029,CST-1368DR,4289,4655,11521,01.216,552
2023-05-23T09:01:32,42.805,6.029,CST-1368DR,4289,4655,11521,01.216,551
2023-05-23T09:04:34,42.805,6.029,CST-1368DR,4289,4656,11524,01.215,552
2023-05-23T09:07:36,42.805,6.029,CST-1368DR,4289,4658,11529,01.214,552
2023-05-23T09:10:37,42.805,6.029,CST-1368DR,4289,4658,11528,01.214,552
2023-05-23T09:13:39,42.805,6.029,CST-1368DR,4289,4660,11533,01.212,552
2023-05-23T09:16:40,42.805,6.029,CST-1368DR,4289,4663,11542,01.209,552
2023-05-23T09:19:42,42.805,6.029,CST-1368DR,4289,4656,11525,01.215,552
2023-05-23T09:22:43,42.805,6.029,CST-1368DR,4289,4658,11529,01.214,552
2023-05-23T09:25:45,42.805,6.029,CST-1368DR,4289,4653,11516,01.218,552
2023-05-23T09:28:47,42.805,6.029,CST-1368DR,4289,4658,11530,01.213,552
2023-05-23T09:31:48,42.805,6.029,CST-1368DR,4289,4658,11528,01.214,552
2023-05-23T09:34:50,42.805,6.029,CST-1368DR,4289,4659,11532,01.213,552
2023-05-23T09:37:51,42.805,6.029,CST-1368DR,4289,4659,11530,01.213,552
2023-05-23T09:40:53,42.805,6.029,CST-1368DR,4289,4656,11523,01.216,552
2023-05-23T09:43:54,42.805,6.029,CST-1368DR,4289,4656,11525,01.215,552
2023-05-23T09:46:56,42.805,6.029,CST-1368DR,4289,4660,11533,01.212,552
2023-05-23T09:49:58,42.805,6.029,CST-1368DR,4289,4659,11531,01.213,552
2023-05-23T09:52:59,42.805,6.029,CST-1368DR,4289,4658,11529,01.214,552
2023-05-23T09:56:01,42.805,6.029,CST-1368DR,4289,4659,11532,01.213,552
2023-05-23T09:59:02,42.805,6.029,CST-1368DR,4289,4659,11531,01.213,552
2023-05-23T10:02:04,42.805,6.029,CST-1368DR,4289,4660,11533,01.212,552
2023-05-23T10:05:06,42.805,6.029,CST-1368DR,4289,4658,11528,01.214,552
2023-05-23T10:08:07,42.805,6.029,CST-1368DR,4289,4653,11517,01.218,552
2023-05-23T10:11:09,42.805,6.029,CST-1368DR,4289,4659,11531,01.213,552
2023-05-23T10:14:10,42.805,6.029,CST-1368DR,4289,4657,11527,01.214,552
2023-05-23T10:17:12,42.805,6.029,CST-1368DR,4289,4659,11532,01.213,552
2023-05-23T10:20:13,42.805,6.029,CST-1368DR,4289,4658,11530,01.213,552
2023-05-23T10:23:15,42.805,6.029,CST-1368DR,4289,4658,11529,01.214,552
2023-05-23T10:26:17,42.805,6.029,CST-1368DR,4289,4657,11526,01.215,552
2023-05-23T10:29:18,42.805,6.029,CST-1368DR,4289,4654,11520,01.217,552
2023-05-23T10:32:20,42.805,6.029,CST-1368DR,4289,4661,11536,01.211,552
2023-05-23T10:35:21,42.805,6.029,CST-1368DR,4289,4657,11526,01.215,552
2023-05-23T10:38:23,42.805,6.029,CST-1368DR,4289,4659,11530,01.213,552
2023-05-23T10:41:24,42.805,6.029,CST-1368DR,4289,4659,11530,01.213,552
2023-05-23T10:44:26,42.805,6.029,CST-1368DR,4289,4658,11529,01.214,552
2023-05-23T10:47:28,42.805,6.029,CST-1368DR,4289,4661,11535,01.212,552
2023-05-23T10:50:29,42.805,6.029,CST-1368DR,4289,4659,11532,01.213,552
2023-05-23T10:53:31,42.805,6.029,CST-1368DR,4289,4659,11532,01.213,552
2023-05-23T10:56:32,42.805,6.029,CST-1368DR,4289,4659,11530,01.213,552
2023-05-23T10:59:34,42.805,6.029,CST-1368DR,4289,4659,11532,01.213,552
2023-05-23T11:02:36,42.805,6.029,CST-1368DR,4289,4659,11531,01.213,552
2023-05-23T11:05:37,42.805,6.029,CST-1368DR,4289,4659,11530,01.213,552
2023-05-23T11:08:39,42.805,6.029,CST-1368DR,4289,4660,11533,01.212,552
2023-05-23T11:11:40,42.805,6.029,CST-1368DR,4289,4657,11526,01.215,552
2023-05-23T11:14:42,42.805,6.029,CST-1368DR,4289,4655,11522,01.216,552
2023-05-23T11:17:43,42.805,6.029,CST-1368DR,4289,4658,11528,01.214,552
2023-05-23T11:20:45,42.805,6.029,CST-1368DR,4289,4654,11518,01.218,552
2023-05-23T11:23:47,42.805,6.029,CST-1368DR,4289,4659,11530,01.213,552
2023-05-23T11:26:48,42.805,6.029,CST-1368DR,4289,4658,11530,01.213,552
2023-05-23T11:29:50,42.805,6.029,CST-1368DR,4289,4658,11528,01.214,552
2023-05-23T11:32:51,42.805,6.029,CST-1368DR,4289,4657,11525,01.215,552
2023-05-23T11:35:53,42.805,6.029,CST-1368DR,4289,4658,11530,01.213,552
2023-05-23T11:38:54,42.805,6.029,CST-1368DR,4289,4656,11525,01.215,552
2023-05-23T11:41:56,42.805,6.029,CST-1368DR,4289,4656,11523,01.216,552
2023-05-23T11:44:58,42.805,6.029,CST-1368DR,4289,4657,11526,01.215,552
2023-05-23T11:47:59,42.805,6.029,CST-1368DR,4289,4656,11524,01.215,552
2023-05-23T11:51:01,42.805,6.029,CST-1368DR,4289,4657,11526,01.215,552
2023-05-23T11:54:02,42.805,6.029,CST-1368DR,4289,4659,11531,01.213,551
2023-05-23T11:57:04,42.805,6.029,CST-1368DR,4289,4659,11531,01.213,552
2023-05-23T12:00:05,42.805,6.029,CST-1368DR,4289,4665,11546,01.208,552
2023-05-23T12:03:07,42.805,6.029,CST-1368DR,4289,4659,11532,01.213,552
2023-05-23T12:06:09,42.805,6.029,CST-1368DR,4289,4659,11530,01.213,552
2023-05-23T12:09:10,42.805,6.029,CST-1368DR,4289,4658,11529,01.214,551
2023-05-23T12:12:12,42.805,6.029,CST-1368DR,4289,4659,11531,01.213,552
2023-05-23T12:15:13,42.805,6.029,CST-1368DR,4289,4660,11533,01.212,552
2023-05-23T12:18:15,42.805,6.029,CST-1368DR,4289,4658,11530,01.213,552
2023-05-23T12:21:17,42.805,6.029,CST-1368DR,4289,4658,11529,01.214,552
2023-05-23T12:24:18,42.805,6.029,CST-1368DR,4289,4660,11533,01.212,552
2023-05-23T12:27:20,42.805,6.029,CST-1368DR,4289,4657,11525,01.215,552
2023-05-23T12:30:22,42.805,6.029,CST-1368DR,4289,4658,11529,01.214,552
2023-05-23T12:33:23,42.805,6.029,CST-1368DR,4289,4657,11527,01.214,552
2023-05-23T12:36:25,42.805,6.029,CST-1368DR,4289,4658,11528,01.214,552
2023-05-23T12:39:26,42.805,6.029,CST-1368DR,4289,4658,11528,01.214,552
2023-05-23T12:42:28,42.805,6.029,CST-1368DR,4289,4658,11528,01.214,552
2023-05-23T12:45:30,42.805,6.029,CST-1368DR,4289,4658,11528,01.214,552
2023-05-23T12:48:31,42.805,6.029,CST-1368DR,4289,4659,11532,01.213,552
2023-05-23T12:51:33,42.805,6.029,CST-1368DR,4289,4658,11530,01.213,552
2023-05-23T12:54:34,42.805,6.029,CST-1368DR,4289,4658,11528,01.214,552
2023-05-23T12:57:36,42.805,6.029,CST-1368DR,4289,4660,11533,01.212,552
2023-05-23T13:00:37,42.805,6.029,CST-1368DR,4289,4658,11528,01.214,552
2023-05-23T13:03:39,42.805,6.029,CST-1368DR,4289,4660,11534,01.212,552
2023-05-23T13:06:41,42.805,6.029,CST-1368DR,4289,4660,11534,01.212,552
2023-05-23T13:09:42,42.805,6.029,CST-1368DR,4289,4658,11530,01.213,552
2023-05-23T13:12:44,42.805,6.029,CST-1368DR,4289,4659,11530,01.213,552
2023-05-23T13:15:45,42.805,6.029,CST-1368DR,4289,4659,11532,01.213,552
2023-05-23T13:18:47,42.805,6.029,CST-1368DR,4289,4659,11530,01.213,552
2023-05-23T13:21:48,42.805,6.029,CST-1368DR,4289,4661,11536,01.211,552
2023-05-23T13:24:50,42.805,6.029,CST-1368DR,4289,4660,11533,01.212,552
2023-05-23T13:27:52,42.805,6.029,CST-1368DR,4289,4660,11533,01.212,552
2023-05-23T13:30:53,42.805,6.029,CST-1368DR,4289,4659,11530,01.213,552
2023-05-23T13:33:55,42.805,6.029,CST-1368DR,4289,4660,11533,01.212,552
2023-05-23T13:36:56,42.805,6.029,CST-1368DR,4289,4658,11529,01.214,552
2023-05-23T13:39:58,42.805,6.029,CST-1368DR,4289,4659,11532,01.213,552
2023-05-23T13:43:00,42.805,6.029,CST-1368DR,4289,4660,11533,01.212,552
2023-05-23T13:46:01,42.805,6.029,CST-1368DR,4289,4659,11531,01.213,552
2023-05-23T13:49:03,42.805,6.029,CST-1368DR,4289,4658,11530,01.213,552
2023-05-23T13:52:04,42.805,6.029,CST-1368DR,4289,4657,11527,01.214,552
2023-05-23T13:55:06,42.805,6.029,CST-1368DR,4289,4660,11534,01.212,552
2023-05-23T13:58:07,42.805,6.029,CST-1368DR,4289,4660,11533,01.212,552
2023-05-23T14:01:09,42.805,6.029,CST-1368DR,4289,4660,11533,01.212,552
2023-05-23T14:04:11,42.805,6.029,CST-1368DR,4289,4660,11534,01.212,552
2023-05-23T14:07:12,42.805,6.029,CST-1368DR,4289,4657,11525,01.215,552
2023-05-23T14:10:14,42.805,6.029,CST-1368DR,4289,4661,11535,01.212,552
2023-05-23T14:13:15,42.805,6.029,CST-1368DR,4289,4661,11536,01.211,552
2023-05-23T14:16:17,42.805,6.029,CST-1368DR,4289,4661,11536,01.211,552
2023-05-23T14:19:18,42.805,6.029,CST-1368DR,4289,4661,11536,01.211,552
2023-05-23T14:22:20,42.805,6.029,CST-1368DR,4289,4661,11536,01.211,552
2023-05-23T14:25:22,42.805,6.029,CST-1368DR,4289,4661,11535,01.212,552
2023-05-23T14:28:23,42.805,6.029,CST-1368DR,4289,4661,11536,01.211,552
2023-05-23T14:31:26,42.805,6.029,CST-1368DR,4289,4661,11536,01.211,552
2023-05-23T14:34:27,42.805,6.029,CST-1368DR,4289,4659,11532,01.213,552
2023-05-23T14:37:29,42.805,6.029,CST-1368DR,4289,4661,11535,01.212,552
2023-05-23T14:40:30,42.805,6.029,CST-1368DR,4289,4661,11536,01.211,552
2023-05-23T14:43:32,42.805,6.029,CST-1368DR,4289,4661,11535,01.212,552
2023-05-23T14:46:33,42.805,6.029,CST-1368DR,4289,4659,11532,01.213,552
2023-05-23T14:49:35,42.805,6.029,CST-1368DR,4289,4660,11534,01.212,552
2023-05-23T14:52:37,42.805,6.029,CST-1368DR,4289,4661,11537,01.211,552
2023-05-23T14:55:38,42.805,6.029,CST-1368DR,4289,4661,11536,01.211,552
2023-05-23T14:58:40,42.805,6.029,CST-1368DR,4289,4661,11535,01.212,552
2023-05-23T15:01:41,42.805,6.029,CST-1368DR,4289,4659,11532,01.213,552
2023-05-23T15:04:43,42.805,6.029,CST-1368DR,4289,4661,11537,01.211,552
2023-05-23T15:07:44,42.805,6.029,CST-1368DR,4289,4658,11529,01.214,552
2023-05-23T15:10:46,42.805,6.029,CST-1368DR,4289,4661,11535,01.212,552
2023-05-23T15:13:48,42.805,6.029,CST-1368DR,4289,4659,11532,01.213,552
2023-05-23T15:16:49,42.805,6.029,CST-1368DR,4289,4660,11534,01.212,552
2023-05-23T15:19:51,42.805,6.029,CST-1368DR,4289,4660,11533,01.212,552
2023-05-23T15:22:52,42.805,6.029,CST-1368DR,4289,4658,11528,01.214,552
2023-05-23T15:25:54,42.805,6.029,CST-1368DR,4289,4659,11532,01.213,552
2023-05-23T15:28:56,42.805,6.029,CST-1368DR,4289,4659,11531,01.213,552
2023-05-23T15:31:57,42.805,6.029,CST-1368DR,4289,4661,11536,01.211,552
2023-05-23T15:34:59,42.805,6.029,CST-1368DR,4289,4658,11528,01.214,552
2023-05-23T15:38:00,42.805,6.029,CST-1368DR,4289,4659,11532,01.213,552
2023-05-23T15:41:02,42.805,6.029,CST-1368DR,4289,4659,11532,01.213,552
2023-05-23T15:44:03,42.805,6.029,CST-1368DR,4289,4661,11535,01.212,552
2023-05-23T15:47:05,42.805,6.029,CST-1368DR,4289,4661,11536,01.211,552
2023-05-23T15:50:07,42.805,6.029,CST-1368DR,4289,4659,11531,01.213,552
2023-05-23T15:53:08,42.805,6.029,CST-1368DR,4289,4659,11531,01.213,552
2023-05-23T15:56:10,42.805,6.029,CST-1368DR,4289,4658,11528,01.214,552
2023-05-23T15:59:11,42.805,6.029,CST-1368DR,4289,4659,11531,01.213,552
2023-05-23T16:02:13,42.805,6.029,CST-1368DR,4289,4658,11528,01.214,552
2023-05-23T16:05:14,42.805,6.029,CST-1368DR,4289,4657,11527,01.214,552
2023-05-23T16:08:16,42.805,6.029,CST-1368DR,4289,4660,11533,01.212,552
2023-05-23T16:11:18,42.805,6.029,CST-1368DR,4289,4659,11531,01.213,552
2023-05-23T16:14:19,42.805,6.029,CST-1368DR,4289,4658,11530,01.213,552
2023-05-23T16:17:21,42.805,6.029,CST-1368DR,4289,4660,11533,01.212,552
2023-05-23T16:20:22,42.805,6.029,CST-1368DR,4289,4659,11531,01.213,552
2023-05-23T16:23:24,42.805,6.029,CST-1368DR,4289,4656,11523,01.216,552
2023-05-23T16:26:26,42.805,6.029,CST-1368DR,4289,4657,11525,01.215,552
2023-05-23T16:29:27,42.805,6.029,CST-1368DR,4289,4658,11530,01.213,552
2023-05-23T16:32:29,42.805,6.029,CST-1368DR,4289,4657,11526,01.215,552
2023-05-23T16:35:30,42.805,6.029,CST-1368DR,4289,4657,11527,01.214,552
2023-05-23T16:38:32,42.805,6.029,CST-1368DR,4289,4657,11525,01.215,552